Theta_e
320 312 313 310 301 300 297 300 304 305 306 310 312 310 311 313 310 304 328 334 337 340 344 346 347 348 348 348 348 348 346 343 340 339 339 339 339 338 338 338 342 342 341 342 341 338 338 337 337
311 313 312 304 297 293 295 301 302 306 312 315 315 314 313 311 322 323 329 335 340 340 343 345 345 348 347 347 348 347 346 343 339 338 337 338 338 337 338 338 342 340 342 342 340 338 338 336 335
314 312 308 299 294 294 296 301 304 309 313 311 313 317 316 314 323 326 331 336 339 339 341 343 344 348 348 347 348 347 346 344 341 338 337 337 337 337 338 338 340 341 341 341 340 338 337 335 334
311 311 307 299 298 299 301 303 307 309 309 313 314 312 319 324 325 330 335 337 336 336 338 342 345 347 348 347 347 347 345 344 341 339 337 336 336 335 337 338 340 340 339 339 338 337 336 335 333
309 307 300 300 300 302 300 304 307 306 307 311 311 310 316 324 328 332 333 334 334 334 337 341 343 346 347 347 347 346 345 344 342 340 337 335 334 334 336 336 338 338 336 336 337 337 336 334 332
305 304 297 296 300 302 302 306 307 306 308 311 312 313 317 323 327 330 332 332 334 333 335 338 337 340 343 345 345 345 344 343 342 339 337 335 335 334 334 335 335 335 335 335 334 336 335 333 332
303 299 296 297 299 299 304 307 305 305 308 310 315 309 317 320 326 330 331 332 333 333 334 336 339 339 336 339 340 342 342 342 341 340 338 337 335 332 333 335 333 333 334 333 332 333 335 333 331
303 301 298 298 298 298 303 306 307 306 306 316 318 308 311 320 326 327 328 329 331 331 332 332 335 338 339 341 334 335 337 338 338 336 333 331 331 332 331 330 332 330 331 331 331 330 332 333 330
307 298 295 298 298 301 303 303 305 308 311 314 316 315 319 322 326 324 324 324 326 327 329 329 331 333 335 337 333 331 332 332 331 330 327 326 330 330 329 328 330 331 331 330 329 328 327 327 327
303 301 299 302 303 302 304 302 303 306 309 310 314 319 319 322 323 321 320 320 322 324 325 327 329 330 332 334 333 336 335 335 333 331 330 328 328 327 326 323 325 327 327 328 328 326 322 320 322
305 301 303 302 305 306 303 301 303 304 304 309 309 314 317 319 321 321 322 322 322 325 326 326 326 328 331 332 331 332 332 332 329 328 326 326 324 324 324 324 323 323 318 322 322 322 322 322 322
301 303 304 305 307 306 306 304 302 304 306 309 310 316 317 318 319 321 321 322 322 324 326 326 326 326 329 330 329 329 327 328 326 325 324 324 323 323 322 321 320 320 321 321 322 322 321 321 321
301 302 302 305 304 303 304 304 306 303 305 306 312 317 317 318 320 322 322 323 322 323 326 327 325 326 327 328 327 326 325 325 326 324 324 324 323 322 321 320 319 319 320 321 321 321 321 321 320
304 304 304 306 305 305 302 302 303 306 307 305 314 315 317 318 319 320 321 321 322 324 325 327 325 326 327 327 326 325 325 324 323 324 324 324 323 323 321 320 319 318 320 320 320 321 321 320 320
304 302 303 305 307 306 304 299 297 304 304 305 311 314 316 318 319 319 322 322 323 325 325 326 326 325 326 327 326 326 325 323 323 323 323 324 324 323 322 320 319 320 321 320 319 319 319 319 318
300 300 296 302 305 307 304 300 304 304 302 304 307 312 315 317 318 321 322 323 324 325 324 326 327 325 325 326 326 326 325 324 323 322 323 323 323 323 322 321 321 321 321 320 317 317 317 317 317
298 291 295 298 305 305 300 298 305 304 298 299 300 307 313 316 318 320 321 323 324 325 325 324 326 326 324 325 326 326 325 324 324 323 322 323 323 323 323 322 322 322 321 319 317 316 317 317 318
289 292 292 293 299 302 299 298 303 307 301 301 302 299 305 313 317 321 322 322 325 326 326 326 325 326 325 325 324 324 324 325 324 324 323 323 323 323 322 322 321 321 320 319 317 317 317 318 318
293 292 291 294 299 298 297 298 302 305 302 299 299 299 300 305 315 319 323 323 321 325 325 325 325 325 324 323 322 322 320 323 323 324 324 324 324 323 322 322 321 320 320 320 318 318 317 319 319
297 293 292 296 299 297 295 296 299 302 303 305 305 305 303 303 303 310 319 323 322 322 324 325 325 326 325 325 324 324 323 324 325 325 325 324 324 324 323 322 321 320 319 319 318 318 319 320 318
291 293 293 293 296 296 295 293 295 299 303 304 306 308 308 305 307 308 310 318 323 323 322 325 325 326 326 327 326 325 324 322 323 323 324 324 325 324 323 323 322 320 320 319 319 318 319 319 317
288 293 294 293 293 287 293 284 291 295 298 299 302 305 306 307 305 309 307 310 319 323 325 325 326 326 327 327 326 324 323 322 324 325 326 325 325 325 324 323 323 322 321 321 320 319 320 320 317
290 294 293 292 291 290 288 286 287 293 292 296 298 303 305 308 309 307 307 309 312 320 323 325 325 326 326 327 327 325 324 325 326 326 325 325 324 325 324 324 323 322 321 322 321 318 319 319 319
295 293 292 293 290 283 286 286 286 289 291 294 297 300 303 306 308 310 311 310 308 315 320 323 324 324 326 326 326 325 325 324 324 324 324 324 324 323 324 324 324 323 322 322 321 320 321 320 320
295 290 279 281 281 279 285 285 288 291 295 296 297 299 300 302 305 307 307 308 309 308 315 319 322 322 324 325 325 326 325 325 324 324 323 323 322 322 322 323 323 323 324 323 322 321 321 321 320
292 290 279 271 274 277 283 282 288 294 297 299 300 300 300 299 301 303 304 306 307 307 309 316 318 320 322 323 324 325 326 326 325 325 324 323 323 323 324 322 323 323 324 323 322 322 322 322 321
290 287 290 283 281 279 281 284 290 294 294 295 296 296 298 299 301 300 300 301 303 304 305 312 316 319 320 321 323 324 325 324 324 324 324 323 323 322 322 322 321 322 323 322 322 322 322 322 322
289 291 281 282 270 271 279 280 283 287 290 292 293 294 296 297 298 298 298 298 299 301 303 307 314 317 319 320 322 322 323 324 324 324 322 322 322 322 321 321 321 322 322 322 322 322 323 321 321
288 287 286 284 282 276 273 278 290 289 291 292 294 294 295 295 296 294 293 295 296 298 299 303 310 315 317 319 320 321 322 323 323 323 323 322 322 321 321 321 320 321 321 321 321 322 322 319 318
289 287 286 278 275 281 281 282 290 289 290 290 290 291 293 292 291 290 291 292 293 294 296 301 308 312 316 318 319 320 321 321 321 322 321 321 320 321 320 320 320 320 320 321 321 320 318 317 314
Wind_Speed
7 5 3 5 5 5 1 2 1 3 2 1 3 5 4 1 2 1 1 5 7 8 5 8 10 12 11 13 13 14 15 14 15 14 14 15 14 14 14 14 11 15 16 17 17 18 18 16 17
5 4 5 3 5 3 2 1 5 3 3 6 4 2 2 2 1 4 6 6 10 10 7 7 10 12 12 12 13 14 15 14 14 14 13 15 14 14 14 14 14 16 15 16 17 17 17 16 16
1 5 5 5 3 2 2 3 4 2 5 1 3 3 3 1 2 9 3 11 9 9 8 7 8 12 12 11 12 14 14 14 13 13 14 13 14 13 12 13 14 15 16 15 16 16 16 15 16
4 5 4 5 2 1 2 2 3 5 2 1 2 3 1 2 5 5 11 13 9 7 7 8 8 10 12 11 13 13 14 14 13 13 13 13 13 12 11 11 14 15 15 14 14 15 15 15 15
5 4 4 3 2 3 2 1 6 4 1 1 1 2 1 1 2 10 12 11 11 8 6 7 9 9 11 12 12 12 14 13 12 12 13 12 12 12 10 12 11 14 14 14 13 13 14 14 14
5 3 4 1 2 3 2 4 4 2 2 2 1 4 3 1 6 10 10 11 10 8 6 6 7 9 10 12 12 13 13 13 12 12 12 11 11 11 11 12 11 12 12 13 13 12 13 13 14
7 4 4 4 2 3 1 5 5 4 3 3 5 4 1 2 4 8 8 9 9 8 7 5 7 8 8 10 11 12 13 12 12 12 11 10 10 11 11 10 11 11 11 12 13 12 11 12 12
4 5 4 3 3 2 2 3 1 5 4 2 3 3 2 4 11 8 7 9 9 7 7 7 6 6 7 8 10 10 12 11 11 11 11 10 11 10 9 7 9 11 11 12 12 12 11 11 11
1 5 3 4 6 3 3 5 1 1 4 2 4 2 2 9 13 11 9 9 9 7 7 6 6 6 6 6 7 9 10 10 10 9 10 9 6 7 7 7 9 10 11 11 10 10 11 10 9
3 4 11 7 7 4 1 3 7 5 2 3 2 2 4 12 13 15 14 13 12 12 8 7 8 7 7 5 6 7 6 6 6 7 7 5 6 5 5 5 7 8 9 10 10 10 9 6 3
3 4 4 4 7 7 5 1 1 6 3 8 7 5 7 10 13 15 15 13 13 12 10 9 7 9 8 7 5 3 3 4 5 8 7 6 5 4 3 3 3 3 5 3 4 4 3 4 3
2 1 2 6 6 2 7 7 3 4 5 4 7 6 11 13 16 17 17 15 13 12 13 9 9 8 9 6 6 6 5 5 5 6 7 5 4 4 4 3 3 3 2 4 3 2 3 3 3
4 0 2 3 3 4 3 6 6 7 9 3 3 8 14 14 15 11 10 9 10 13 13 11 10 9 8 8 7 6 6 6 6 6 7 6 5 5 4 4 3 3 3 2 2 2 2 1 1
5 3 2 2 3 3 2 4 5 9 7 7 7 10 11 15 17 7 10 13 14 12 12 13 12 11 10 9 10 7 6 6 6 6 7 7 6 5 5 4 4 4 4 3 3 3 2 1 1
4 2 1 5 3 5 4 5 10 7 3 8 9 8 8 13 10 19 17 14 13 13 12 13 15 11 11 11 9 8 7 7 7 7 8 9 7 7 6 5 5 4 4 4 3 2 2 2 1
4 2 3 1 6 5 7 11 7 5 7 11 10 8 10 12 16 16 14 14 13 12 14 13 11 13 13 12 8 7 7 7 7 7 7 10 9 9 7 5 5 5 4 4 3 3 2 2 3
2 3 8 4 9 5 8 3 6 3 5 10 9 9 9 10 11 15 14 15 15 15 13 14 14 14 14 12 9 9 9 8 7 7 8 10 10 10 8 6 5 6 5 4 4 3 3 3 3
6 6 4 5 3 4 5 6 11 11 6 10 10 7 8 10 17 17 14 15 15 15 14 14 13 15 14 10 8 7 7 8 7 8 8 11 9 10 9 7 7 6 5 5 4 5 4 3 2
5 4 5 2 6 3 7 10 13 15 5 9 10 9 10 13 16 8 12 13 13 15 16 16 16 15 12 10 10 10 11 10 8 9 12 12 11 11 11 7 8 8 8 8 8 5 6 4 3
3 3 4 3 2 1 6 14 9 16 11 12 14 12 13 11 11 11 12 13 16 17 19 17 19 17 16 12 11 9 10 9 10 8 10 12 12 12 10 10 9 9 7 8 8 7 3 4 4
3 5 3 1 6 2 5 18 9 12 18 13 15 16 14 17 20 16 13 15 16 17 19 19 20 21 18 18 9 7 4 3 8 9 10 11 13 12 12 12 10 10 8 8 9 9 9 6 3
9 7 6 4 3 6 2 14 8 4 10 8 12 14 16 18 18 19 15 16 19 20 18 19 20 21 20 21 15 18 14 14 12 11 10 10 13 13 13 13 12 11 9 10 9 8 8 6 5
5 5 6 4 3 2 5 7 6 3 7 11 8 13 16 17 17 20 20 19 19 19 19 19 21 21 21 20 21 17 17 14 10 10 12 13 12 14 14 14 13 12 9 11 11 9 10 7 5
7 5 4 2 4 9 9 9 18 11 8 8 7 10 12 15 14 16 16 12 14 14 16 17 19 22 21 21 24 24 23 19 13 13 12 11 10 11 14 14 13 13 12 12 11 11 12 10 10
6 7 0 3 6 9 4 9 27 6 10 7 11 11 13 11 10 12 13 13 14 15 17 17 19 21 21 23 23 25 23 22 21 17 14 14 11 10 13 15 14 12 13 12 11 11 12 12 11
9 6 6 8 6 3 2 10 16 3 7 14 15 15 11 9 10 12 10 9 13 15 16 18 19 20 20 21 23 22 23 15 16 17 14 12 12 13 14 15 15 15 15 13 12 9 10 11 10
5 10 4 2 2 0 5 10 18 16 15 12 13 9 15 16 14 8 9 10 12 12 15 18 19 19 21 21 20 20 20 21 18 19 16 12 13 11 13 15 15 14 15 15 14 11 12 11 11
7 6 3 2 1 3 7 7 17 1 1 5 8 10 11 9 9 8 8 9 9 11 13 14 17 20 21 20 19 18 21 21 19 16 17 18 14 14 15 14 14 14 15 14 14 11 13 12 9
5 9 2 4 5 5 4 9 14 13 10 11 13 8 9 11 10 9 8 8 9 9 11 12 13 17 17 17 18 19 18 19 18 16 17 17 15 16 15 15 14 14 14 14 14 14 13 12 10
8 10 7 6 4 4 2 16 7 6 8 2 7 10 11 9 8 8 9 9 10 9 9 12 12 13 15 16 16 18 17 17 17 18 18 17 17 16 16 15 14 14 13 13 16 15 12 11 10
Wind_Direction
330 347 82 43 54 64 114 185 147 133 163 153 107 145 181 79 169 158 66 149 159 137 135 126 120 117 121 120 120 118 112 107 102 98 98 92 89 89 91 95 99 89 83 87 89 88 86 85 82
328 2 47 68 78 61 277 215 179 191 125 128 95 91 105 173 102 127 131 161 151 133 127 126 123 124 125 122 125 125 118 114 109 102 96 94 89 92 94 100 92 89 87 90 93 90 85 83 82
350 38 71 77 91 133 206 206 175 114 142 149 109 38 141 190 143 161 140 146 136 130 131 133 133 131 130 126 130 127 122 118 115 106 100 97 92 91 94 99 94 90 84 87 93 92 91 86 83
13 20 49 70 17 339 249 184 153 127 280 28 113 97 318 269 164 175 148 145 137 136 141 142 138 137 133 131 133 131 126 123 119 112 105 101 93 90 92 96 93 92 87 89 96 94 92 87 88
32 62 54 68 320 277 260 211 146 144 124 113 196 185 297 104 103 139 149 147 146 146 147 151 148 139 139 133 135 137 129 123 117 114 112 108 107 102 98 101 91 92 95 90 92 98 96 94 91
50 74 65 117 287 289 278 162 142 142 122 161 93 141 194 20 140 150 148 148 152 150 151 154 137 132 136 137 135 138 129 126 124 121 121 117 109 101 99 101 98 103 105 98 94 102 101 97 92
112 90 168 156 267 317 92 157 158 173 149 235 153 138 274 204 156 150 147 144 151 152 152 151 150 140 129 133 135 133 133 134 131 130 123 111 105 111 103 96 101 103 109 103 92 90 102 100 95
103 93 131 200 194 220 147 196 134 163 208 81 166 205 234 190 146 133 141 158 164 163 162 162 160 148 143 146 138 137 135 134 129 123 117 113 106 99 96 80 101 108 109 101 90 86 90 104 94
11 82 175 204 160 214 178 169 131 100 116 244 199 183 323 130 135 146 160 176 182 184 177 169 166 164 152 153 148 143 144 138 128 124 122 117 123 122 117 108 102 108 106 104 95 88 84 84 87
77 143 203 180 175 181 81 235 165 146 141 239 252 95 91 142 160 170 181 186 194 194 195 185 174 173 166 164 168 162 152 150 144 143 140 134 135 130 125 110 108 100 86 83 87 89 90 92 97
116 200 308 223 152 140 141 195 280 135 196 218 200 174 157 175 180 188 196 197 192 195 199 194 189 175 179 174 174 172 163 158 156 155 152 153 145 149 147 136 117 102 91 89 84 97 94 104 111
169 79 93 336 339 147 172 149 195 214 239 161 205 165 166 181 198 197 200 196 185 193 202 200 190 185 183 174 177 177 177 174 170 172 167 163 161 166 161 154 142 131 121 109 101 105 108 115 112
154 214 44 339 354 326 333 226 191 215 245 242 137 173 182 191 210 210 201 198 190 194 197 195 189 194 190 181 180 184 191 183 182 181 188 174 177 181 168 165 160 152 153 143 141 135 144 120 117
150 138 281 290 304 302 279 324 137 242 229 222 188 212 199 195 201 184 206 202 199 200 198 194 198 193 192 192 185 188 191 193 192 193 193 192 186 187 186 179 180 177 176 168 174 178 174 188 253
114 289 322 204 213 237 159 282 230 234 198 211 211 210 222 223 176 203 209 212 198 202 193 200 200 193 193 203 196 190 196 193 199 203 197 198 196 196 191 188 191 186 180 178 172 175 195 230 248
106 73 239 178 154 247 158 254 253 229 195 237 233 219 206 218 216 219 203 204 198 201 200 191 198 192 196 198 201 204 197 202 203 204 199 203 206 201 196 194 200 189 182 178 184 186 199 235 243
217 174 224 284 197 149 189 258 249 94 202 264 259 252 223 222 226 232 209 203 196 199 198 192 192 195 198 198 195 203 205 205 210 205 207 206 206 205 199 202 202 190 191 188 188 190 214 215 231
183 213 253 216 211 202 213 249 273 273 200 241 269 263 255 242 232 229 212 207 201 194 199 199 193 198 195 193 193 199 208 215 208 210 211 205 207 204 206 204 199 192 194 195 190 202 205 232 225
136 164 201 225 256 249 231 241 244 261 224 250 246 249 245 240 250 242 218 208 207 199 194 197 197 195 186 193 192 205 210 212 213 214 210 208 205 203 204 208 200 192 199 203 197 196 212 228 206
149 207 212 252 325 221 295 274 231 263 246 227 239 243 245 250 249 238 220 209 204 209 208 199 201 195 198 199 204 207 196 213 214 206 209 207 201 200 202 203 205 199 198 205 199 194 192 221 180
196 229 164 312 331 263 312 284 225 237 247 231 233 237 235 228 248 245 219 214 214 212 213 208 203 198 200 206 198 194 170 200 198 206 209 207 204 199 199 203 201 198 199 203 201 199 205 218 183
236 182 194 255 323 258 2 283 241 230 269 230 231 237 239 237 241 248 226 217 211 218 211 213 215 206 201 194 195 199 207 211 211 209 207 206 203 202 199 202 201 199 197 204 202 197 204 203 211
221 149 166 176 209 354 234 279 281 185 265 272 235 238 242 240 235 243 242 234 224 218 214 211 210 211 208 197 199 198 207 213 208 204 201 201 201 204 201 199 200 201 199 206 200 193 203 201 203
150 103 61 140 165 242 216 206 268 241 232 240 227 240 246 251 244 249 251 245 235 222 220 216 212 213 208 201 203 203 206 207 201 201 200 200 202 206 205 199 199 204 204 201 200 203 205 206 208
198 131 111 223 209 241 209 183 252 298 282 234 266 257 255 248 251 248 243 236 237 223 218 217 214 215 209 208 206 209 209 204 205 199 200 192 198 202 207 200 204 204 205 204 200 201 208 211 212
190 187 173 201 204 271 42 227 251 220 250 253 256 263 281 282 262 255 260 251 247 234 224 220 219 219 212 208 212 211 212 210 208 206 201 202 201 202 199 205 208 206 206 203 202 204 207 212 215
182 215 173 1 306 337 220 281 289 262 248 253 262 288 285 281 266 245 246 249 256 244 231 224 220 218 215 211 212 213 211 209 207 205 202 201 200 195 189 194 203 201 201 199 197 204 208 212 216
146 156 116 205 213 241 255 255 249 167 64 303 271 254 273 275 285 299 303 282 265 256 252 239 228 226 217 210 211 211 211 209 208 199 196 199 197 186 185 192 199 199 201 199 198 205 212 213 211
169 211 186 135 179 204 275 253 239 248 223 238 267 298 306 298 284 291 289 282 269 270 257 244 235 231 225 214 210 211 211 212 206 200 199 199 189 188 188 190 193 196 198 198 199 208 208 205 203
209 216 172 166 224 241 259 270 190 250 239 152 329 300 292 280 270 276 282 296 300 287 284 265 246 230 230 225 214 215 210 208 206 204 199 194 192 189 191 188 192 195 195 193 200 203 194 192 189